QPF
0.01 0.00 0.01 0.01 0.00 0.00 0.01 0.01 0.01 0.01 0.02 0.02 0.01 0.00 0.00 0.01 0.01 0.01 0.01 0.03 0.02 0.02 0.03 0.05 0.05 0.03 0.03 0.03 0.03 0.02 0.02 0.04 0.04 0.04 0.03 0.02 0.02 0.02 0.02 0.03 0.03 0.03 0.02 0.02 0.02 0.02 0.01 0.02 0.02
0.01 0.00 0.00 0.00 0.00 0.00 0.01 0.01 0.01 0.01 0.01 0.00 0.01 0.00 0.00 0.00 0.00 0.00 0.01 0.02 0.01 0.01 0.01 0.04 0.04 0.03 0.03 0.03 0.03 0.04 0.03 0.04 0.04 0.03 0.02 0.02 0.03 0.02 0.02 0.03 0.02 0.02 0.02 0.02 0.02 0.01 0.01 0.01 0.01
0.00 0.00 0.00 0.00 0.00 0.00 0.01 0.01 0.00 0.00 0.00 0.00 0.00 0.00 0.00 0.00 0.00 0.00 0.00 0.01 0.01 0.02 0.02 0.04 0.03 0.03 0.03 0.03 0.04 0.04 0.03 0.04 0.03 0.03 0.02 0.02 0.03 0.03 0.02 0.01 0.01 0.01 0.01 0.02 0.01 0.01 0.01 0.01 0.02
0.00 0.00 0.00 0.00 0.00 0.00 0.00 0.00 0.00 0.00 0.00 0.00 0.00 0.00 0.00 0.00 0.00 0.00 0.00 0.01 0.01 0.02 0.04 0.04 0.04 0.03 0.03 0.03 0.04 0.04 0.04 0.03 0.03 0.02 0.02 0.03 0.03 0.02 0.02 0.02 0.01 0.01 0.01 0.01 0.01 0.01 0.02 0.02 0.03
0.00 0.00 0.00 0.00 0.00 0.01 0.00 0.00 0.00 0.00 0.00 0.00 0.00 0.00 0.01 0.01 0.00 0.00 0.00 0.01 0.02 0.03 0.05 0.04 0.05 0.04 0.03 0.03 0.03 0.03 0.03 0.03 0.02 0.02 0.02 0.03 0.02 0.02 0.01 0.02 0.01 0.00 0.00 0.01 0.01 0.01 0.03 0.03 0.03
0.00 0.00 0.00 0.01 0.00 0.01 0.01 0.00 0.00 0.00 0.00 0.00 0.00 0.00 0.01 0.01 0.00 0.00 0.00 0.01 0.03 0.06 0.06 0.07 0.06 0.05 0.04 0.05 0.04 0.03 0.03 0.03 0.02 0.01 0.01 0.02 0.02 0.02 0.02 0.01 0.00 0.00 0.00 0.01 0.01 0.02 0.04 0.04 0.03
0.00 0.00 0.00 0.00 0.01 0.01 0.01 0.00 0.00 0.00 0.00 0.00 0.00 0.00 0.01 0.01 0.01 0.00 0.00 0.02 0.06 0.08 0.06 0.07 0.08 0.07 0.05 0.06 0.04 0.03 0.03 0.02 0.01 0.01 0.01 0.03 0.02 0.02 0.01 0.01 0.01 0.01 0.01 0.01 0.01 0.02 0.03 0.03 0.04
0.00 0.00 0.00 0.00 0.00 0.01 0.01 0.00 0.00 0.00 0.00 0.00 0.00 0.00 0.00 0.00 0.00 0.01 0.00 0.02 0.04 0.08 0.09 0.12 0.09 0.05 0.06 0.06 0.04 0.03 0.03 0.02 0.01 0.01 0.01 0.02 0.02 0.02 0.02 0.01 0.01 0.01 0.01 0.01 0.02 0.02 0.03 0.03 0.04
0.00 0.00 0.00 0.00 0.00 0.01 0.00 0.00 0.00 0.00 0.00 0.00 0.00 0.00 0.00 0.00 0.00 0.01 0.01 0.02 0.06 0.15 0.18 0.10 0.04 0.05 0.05 0.06 0.05 0.04 0.03 0.03 0.02 0.01 0.01 0.01 0.01 0.01 0.02 0.01 0.01 0.00 0.01 0.02 0.03 0.03 0.04 0.03 0.03
0.00 0.00 0.00 0.00 0.00 0.00 0.00 0.00 0.00 0.00 0.00 0.00 0.00 0.00 0.00 0.00 0.00 0.00 0.01 0.01 0.03 0.07 0.07 0.07 0.07 0.05 0.05 0.04 0.03 0.02 0.02 0.01 0.01 0.00 0.00 0.00 0.00 0.01 0.02 0.02 0.01 0.01 0.01 0.02 0.04 0.04 0.04 0.03 0.02
0.00 0.00 0.00 0.00 0.00 0.00 0.00 0.00 0.00 0.00 0.00 0.00 0.00 0.00 0.00 0.00 0.00 0.00 0.01 0.02 0.01 0.02 0.04 0.06 0.05 0.04 0.04 0.03 0.02 0.02 0.01 0.01 0.00 0.00 0.00 0.00 0.00 0.00 0.01 0.01 0.01 0.01 0.01 0.01 0.02 0.03 0.02 0.02 0.01
0.00 0.00 0.00 0.00 0.00 0.00 0.00 0.00 0.00 0.00 0.00 0.00 0.00 0.00 0.00 0.00 0.00 0.00 0.01 0.00 0.00 0.01 0.01 0.02 0.02 0.03 0.03 0.02 0.02 0.01 0.01 0.01 0.00 0.00 0.00 0.00 0.00 0.00 0.00 0.00 0.00 0.00 0.00 0.00 0.00 0.01 0.01 0.02 0.01
0.00 0.00 0.00 0.00 0.00 0.00 0.00 0.00 0.00 0.00 0.00 0.00 0.00 0.00 0.00 0.00 0.00 0.01 0.01 0.00 0.00 0.00 0.01 0.01 0.02 0.03 0.02 0.02 0.02 0.02 0.02 0.01 0.01 0.01 0.00 0.00 0.01 0.01 0.00 0.00 0.00 0.00 0.00 0.00 0.00 0.00 0.01 0.02 0.02
0.00 0.00 0.00 0.00 0.00 0.00 0.00 0.00 0.00 0.00 0.00 0.00 0.00 0.00 0.01 0.01 0.02 0.02 0.02 0.02 0.01 0.01 0.01 0.01 0.01 0.02 0.02 0.02 0.03 0.03 0.02 0.02 0.02 0.01 0.01 0.01 0.01 0.01 0.01 0.00 0.00 0.00 0.00 0.00 0.01 0.01 0.01 0.01 0.02
0.00 0.00 0.00 0.00 0.00 0.00 0.00 0.00 0.00 0.00 0.00 0.00 0.00 0.00 0.01 0.02 0.02 0.02 0.02 0.03 0.03 0.02 0.02 0.01 0.01 0.01 0.02 0.02 0.03 0.02 0.03 0.04 0.04 0.03 0.02 0.01 0.01 0.01 0.01 0.01 0.01 0.01 0.01 0.01 0.01 0.01 0.01 0.01 0.02
0.00 0.00 0.00 0.00 0.00 0.00 0.00 0.00 0.00 0.00 0.00 0.00 0.00 0.01 0.01 0.02 0.03 0.03 0.03 0.03 0.02 0.02 0.02 0.02 0.01 0.02 0.02 0.03 0.03 0.03 0.04 0.04 0.04 0.04 0.02 0.02 0.02 0.02 0.02 0.02 0.02 0.01 0.01 0.02 0.02 0.02 0.02 0.01 0.03
0.00 0.00 0.00 0.00 0.00 0.00 0.00 0.00 0.00 0.00 0.00 0.00 0.01 0.02 0.02 0.02 0.02 0.02 0.03 0.02 0.02 0.02 0.02 0.02 0.02 0.03 0.03 0.03 0.03 0.02 0.03 0.04 0.04 0.04 0.04 0.04 0.03 0.03 0.03 0.03 0.03 0.03 0.01 0.02 0.03 0.03 0.02 0.02 0.02
0.00 0.00 0.00 0.00 0.00 0.00 0.00 0.00 0.00 0.00 0.00 0.00 0.00 0.01 0.02 0.02 0.02 0.03 0.04 0.03 0.02 0.02 0.03 0.03 0.03 0.03 0.03 0.03 0.03 0.03 0.02 0.03 0.03 0.04 0.06 0.05 0.03 0.03 0.03 0.03 0.04 0.05 0.04 0.03 0.04 0.03 0.02 0.01 0.01
0.00 0.00 0.00 0.00 0.00 0.00 0.00 0.00 0.00 0.00 0.00 0.00 0.00 0.01 0.02 0.02 0.01 0.01 0.03 0.03 0.02 0.02 0.03 0.03 0.05 0.07 0.04 0.03 0.03 0.02 0.02 0.02 0.02 0.03 0.05 0.06 0.05 0.04 0.05 0.04 0.04 0.06 0.07 0.06 0.05 0.04 0.03 0.03 0.03
0.00 0.00 0.00 0.00 0.00 0.00 0.00 0.00 0.00 0.00 0.00 0.00 0.00 0.00 0.01 0.01 0.01 0.01 0.02 0.03 0.02 0.01 0.03 0.04 0.05 0.06 0.05 0.04 0.04 0.04 0.03 0.02 0.02 0.03 0.03 0.05 0.07 0.08 0.08 0.08 0.07 0.06 0.07 0.06 0.05 0.04 0.04 0.04 0.06
0.00 0.00 0.00 0.00 0.00 0.00 0.01 0.01 0.00 0.00 0.00 0.00 0.00 0.00 0.00 0.01 0.01 0.00 0.01 0.01 0.00 0.01 0.03 0.03 0.04 0.05 0.05 0.05 0.06 0.07 0.05 0.03 0.03 0.03 0.03 0.05 0.06 0.08 0.09 0.09 0.09 0.09 0.08 0.06 0.05 0.04 0.04 0.04 0.05
0.00 0.00 0.00 0.00 0.00 0.00 0.00 0.00 0.00 0.00 0.00 0.00 0.00 0.00 0.00 0.00 0.00 0.00 0.01 0.00 0.00 0.01 0.02 0.04 0.05 0.06 0.04 0.04 0.05 0.05 0.04 0.04 0.04 0.05 0.06 0.09 0.08 0.09 0.09 0.09 0.09 0.08 0.06 0.05 0.04 0.04 0.05 0.05 0.04
0.00 0.00 0.00 0.00 0.00 0.00 0.00 0.00 0.00 0.00 0.00 0.00 0.00 0.00 0.00 0.00 0.00 0.00 0.01 0.00 0.01 0.02 0.04 0.04 0.05 0.05 0.05 0.05 0.04 0.03 0.03 0.03 0.04 0.04 0.06 0.09 0.09 0.08 0.08 0.09 0.09 0.07 0.06 0.06 0.05 0.05 0.05 0.05 0.05
0.00 0.00 0.00 0.00 0.00 0.00 0.00 0.00 0.00 0.00 0.00 0.00 0.00 0.00 0.00 0.00 0.00 0.01 0.01 0.01 0.02 0.04 0.05 0.06 0.03 0.03 0.04 0.06 0.06 0.05 0.04 0.04 0.04 0.05 0.06 0.08 0.09 0.07 0.08 0.09 0.08 0.07 0.07 0.08 0.08 0.07 0.07 0.07 0.05
0.00 0.00 0.00 0.00 0.00 0.00 0.00 0.00 0.00 0.00 0.00 0.00 0.00 0.00 0.00 0.00 0.00 0.01 0.01 0.01 0.03 0.04 0.05 0.05 0.03 0.04 0.06 0.06 0.05 0.05 0.05 0.06 0.07 0.07 0.05 0.06 0.07 0.07 0.08 0.08 0.08 0.09 0.09 0.09 0.10 0.12 0.11 0.10 0.07
0.00 0.00 0.00 0.00 0.00 0.00 0.00 0.00 0.00 0.00 0.00 0.00 0.00 0.00 0.00 0.00 0.01 0.01 0.01 0.01 0.02 0.03 0.02 0.03 0.03 0.04 0.05 0.04 0.04 0.05 0.06 0.08 0.08 0.07 0.05 0.05 0.08 0.09 0.07 0.07 0.07 0.08 0.09 0.10 0.13 0.12 0.11 0.10 0.08
0.00 0.00 0.00 0.00 0.00 0.00 0.00 0.00 0.00 0.00 0.00 0.00 0.00 0.00 0.00 0.00 0.01 0.01 0.01 0.01 0.01 0.02 0.02 0.01 0.02 0.03 0.04 0.04 0.05 0.07 0.08 0.07 0.05 0.05 0.05 0.05 0.07 0.08 0.08 0.08 0.06 0.06 0.06 0.08 0.13 0.12 0.09 0.08 0.08
0.00 0.00 0.00 0.00 0.00 0.00 0.00 0.00 0.00 0.00 0.00 0.00 0.00 0.00 0.00 0.00 0.00 0.01 0.01 0.01 0.02 0.02 0.01 0.01 0.02 0.03 0.04 0.05 0.06 0.06 0.07 0.05 0.05 0.06 0.05 0.05 0.06 0.08 0.09 0.09 0.09 0.08 0.08 0.10 0.12 0.10 0.10 0.11 0.12
0.00 0.00 0.00 0.00 0.00 0.00 0.00 0.00 0.00 0.00 0.00 0.00 0.00 0.00 0.00 0.00 0.00 0.01 0.01 0.01 0.02 0.02 0.02 0.02 0.04 0.04 0.05 0.06 0.06 0.05 0.05 0.05 0.06 0.05 0.05 0.06 0.06 0.08 0.08 0.07 0.09 0.10 0.10 0.11 0.09 0.09 0.09 0.08 0.09
0.00 0.00 0.00 0.00 0.00 0.00 0.00 0.00 0.00 0.01 0.00 0.00 0.00 0.00 0.00 0.01 0.01 0.02 0.01 0.01 0.01 0.02 0.03 0.06 0.05 0.05 0.07 0.05 0.04 0.04 0.05 0.06 0.06 0.05 0.05 0.06 0.06 0.06 0.07 0.07 0.08 0.09 0.11 0.12 0.11 0.13 0.13 0.08 0.07
MSLP
1006.64 1007.80 1009.21 1010.71 1012.10 1013.24 1014.04 1014.49 1014.63 1014.57 1014.45 1014.36 1014.37 1014.50 1014.71 1014.94 1015.10 1015.12 1015.00 1014.74 1014.39 1014.03 1013.72 1013.52 1013.44 1013.46 1013.55 1013.65 1013.70 1013.70 1013.63 1013.53 1013.43 1013.37 1013.38 1013.48 1013.63 1013.82 1014.00 1014.13 1014.21 1014.23 1014.22 1014.20 1014.21 1014.27 1014.38 1014.54 1014.73
1007.12 1008.51 1010.10 1011.68 1013.06 1014.10 1014.71 1014.92 1014.80 1014.49 1014.15 1013.89 1013.81 1013.89 1014.11 1014.39 1014.62 1014.75 1014.73 1014.56 1014.31 1014.03 1013.79 1013.65 1013.61 1013.66 1013.77 1013.88 1013.95 1013.96 1013.91 1013.84 1013.76 1013.73 1013.77 1013.88 1014.03 1014.21 1014.37 1014.49 1014.55 1014.56 1014.55 1014.55 1014.57 1014.64 1014.76 1014.92 1015.10
1007.87 1009.43 1011.11 1012.70 1014.00 1014.88 1015.29 1015.26 1014.91 1014.40 1013.90 1013.54 1013.39 1013.46 1013.70 1014.02 1014.31 1014.50 1014.54 1014.45 1014.26 1014.04 1013.86 1013.77 1013.77 1013.87 1014.00 1014.14 1014.23 1014.27 1014.25 1014.20 1014.16 1014.14 1014.18 1014.28 1014.41 1014.56 1014.68 1014.77 1014.81 1014.82 1014.81 1014.83 1014.88 1014.98 1015.13 1015.31 1015.49
1008.81 1010.48 1012.18 1013.70 1014.86 1015.55 1015.75 1015.52 1015.00 1014.35 1013.76 1013.35 1013.19 1013.27 1013.53 1013.87 1014.19 1014.41 1014.48 1014.42 1014.27 1014.10 1013.97 1013.92 1013.97 1014.10 1014.26 1014.43 1014.55 1014.62 1014.63 1014.60 1014.57 1014.57 1014.60 1014.68 1014.78 1014.88 1014.96 1015.01 1015.03 1015.03 1015.04 1015.09 1015.18 1015.33 1015.51 1015.71 1015.91
1009.83 1011.52 1013.16 1014.55 1015.53 1016.03 1016.05 1015.66 1015.03 1014.33 1013.73 1013.34 1013.20 1013.32 1013.60 1013.95 1014.27 1014.48 1014.56 1014.51 1014.38 1014.24 1014.15 1014.13 1014.22 1014.37 1014.57 1014.75 1014.89 1014.97 1015.00 1014.99 1014.98 1014.98 1015.01 1015.07 1015.13 1015.19 1015.23 1015.25 1015.25 1015.26 1015.29 1015.37 1015.50 1015.68 1015.90 1016.13 1016.34
1010.78 1012.41 1013.92 1015.13 1015.92 1016.23 1016.11 1015.64 1014.98 1014.31 1013.77 1013.45 1013.39 1013.54 1013.85 1014.20 1014.50 1014.69 1014.75 1014.69 1014.58 1014.46 1014.40 1014.42 1014.53 1014.70 1014.90 1015.08 1015.22 1015.30 1015.34 1015.34 1015.34 1015.36 1015.39 1015.44 1015.49 1015.52 1015.54 1015.53 1015.52 1015.52 1015.57 1015.67 1015.83 1016.04 1016.29 1016.53 1016.75
1011.52 1013.01 1014.33 1015.33 1015.92 1016.09 1015.88 1015.40 1014.80 1014.23 1013.81 1013.61 1013.64 1013.86 1014.18 1014.52 1014.79 1014.95 1014.98 1014.92 1014.82 1014.73 1014.70 1014.75 1014.88 1015.05 1015.24 1015.40 1015.51 1015.58 1015.61 1015.63 1015.64 1015.68 1015.73 1015.79 1015.84 1015.88 1015.88 1015.86 1015.84 1015.84 1015.89 1015.99 1016.16 1016.38 1016.63 1016.87 1017.09
1011.98 1013.26 1014.35 1015.14 1015.55 1015.61 1015.37 1014.94 1014.45 1014.04 1013.78 1013.73 1013.87 1014.15 1014.49 1014.81 1015.05 1015.17 1015.19 1015.14 1015.06 1015.01 1015.02 1015.10 1015.24 1015.40 1015.56 1015.68 1015.76 1015.80 1015.82 1015.84 1015.88 1015.95 1016.03 1016.13 1016.20 1016.25 1016.25 1016.23 1016.20 1016.19 1016.22 1016.31 1016.46 1016.67 1016.89 1017.12 1017.32
1012.16 1013.21 1014.05 1014.61 1014.87 1014.86 1014.63 1014.30 1013.97 1013.74 1013.67 1013.77 1014.01 1014.34 1014.69 1014.99 1015.19 1015.29 1015.30 1015.27 1015.24 1015.24 1015.29 1015.41 1015.55 1015.70 1015.83 1015.91 1015.94 1015.95 1015.96 1015.98 1016.05 1016.16 1016.29 1016.43 1016.55 1016.62 1016.64 1016.62 1016.57 1016.54 1016.54 1016.60 1016.72 1016.88 1017.07 1017.26 1017.43
1012.16 1012.96 1013.55 1013.91 1014.04 1013.98 1013.80 1013.58 1013.42 1013.37 1013.47 1013.71 1014.04 1014.40 1014.75 1015.02 1015.19 1015.27 1015.29 1015.29 1015.31 1015.37 1015.48 1015.63 1015.79 1015.93 1016.02 1016.06 1016.06 1016.04 1016.03 1016.07 1016.17 1016.33 1016.52 1016.71 1016.87 1016.97 1017.01 1016.99 1016.93 1016.87 1016.84 1016.85 1016.92 1017.03 1017.16 1017.31 1017.45
1012.13 1012.68 1013.05 1013.23 1013.25 1013.16 1013.03 1012.93 1012.91 1013.02 1013.26 1013.59 1013.97 1014.34 1014.66 1014.89 1015.03 1015.10 1015.14 1015.18 1015.26 1015.38 1015.56 1015.75 1015.93 1016.06 1016.14 1016.15 1016.12 1016.08 1016.07 1016.13 1016.26 1016.46 1016.70 1016.94 1017.14 1017.28 1017.33 1017.31 1017.24 1017.16 1017.09 1017.06 1017.08 1017.14 1017.22 1017.33 1017.43
1012.21 1012.55 1012.73 1012.76 1012.69 1012.58 1012.49 1012.47 1012.56 1012.78 1013.10 1013.47 1013.86 1014.21 1014.49 1014.67 1014.78 1014.84 1014.89 1014.97 1015.10 1015.29 1015.52 1015.75 1015.96 1016.10 1016.17 1016.17 1016.13 1016.09 1016.09 1016.17 1016.33 1016.57 1016.84 1017.11 1017.35 1017.50 1017.57 1017.56 1017.48 1017.38 1017.29 1017.23 1017.22 1017.24 1017.29 1017.35 1017.42
1012.52 1012.70 1012.72 1012.63 1012.49 1012.35 1012.28 1012.30 1012.45 1012.71 1013.04 1013.41 1013.76 1014.06 1014.28 1014.41 1014.49 1014.54 1014.61 1014.72 1014.89 1015.13 1015.40 1015.66 1015.89 1016.05 1016.12 1016.13 1016.11 1016.09 1016.11 1016.21 1016.39 1016.65 1016.94 1017.22 1017.47 1017.63 1017.71 1017.70 1017.63 1017.54 1017.44 1017.38 1017.35 1017.36 1017.39 1017.44 1017.49
1013.10 1013.16 1013.07 1012.90 1012.69 1012.52 1012.44 1012.46 1012.60 1012.83 1013.12 1013.43 1013.71 1013.94 1014.09 1014.17 1014.22 1014.27 1014.34 1014.48 1014.68 1014.94 1015.23 1015.51 1015.75 1015.93 1016.03 1016.07 1016.08 1016.09 1016.14 1016.26 1016.45 1016.71 1016.99 1017.26 1017.49 1017.64 1017.72 1017.72 1017.67 1017.60 1017.53 1017.49 1017.48 1017.50 1017.54 1017.58 1017.62
1013.89 1013.87 1013.71 1013.48 1013.23 1013.02 1012.90 1012.88 1012.96 1013.11 1013.32 1013.53 1013.71 1013.85 1013.94 1013.99 1014.02 1014.06 1014.15 1014.30 1014.51 1014.77 1015.06 1015.34 1015.59 1015.79 1015.92 1016.00 1016.05 1016.10 1016.19 1016.32 1016.51 1016.74 1016.98 1017.22 1017.41 1017.54 1017.61 1017.62 1017.60 1017.57 1017.55 1017.55 1017.58 1017.64 1017.70 1017.76 1017.80
1014.76 1014.70 1014.50 1014.24 1013.96 1013.73 1013.55 1013.46 1013.44 1013.49 1013.57 1013.65 1013.73 1013.79 1013.83 1013.86 1013.89 1013.95 1014.05 1014.21 1014.41 1014.66 1014.93 1015.20 1015.44 1015.64 1015.80 1015.93 1016.03 1016.13 1016.25 1016.39 1016.56 1016.74 1016.93 1017.10 1017.24 1017.34 1017.39 1017.42 1017.42 1017.44 1017.47 1017.53 1017.62 1017.72 1017.83 1017.91 1017.96
1015.55 1015.47 1015.28 1015.02 1014.75 1014.49 1014.28 1014.10 1013.97 1013.88 1013.81 1013.77 1013.74 1013.73 1013.74 1013.77 1013.83 1013.92 1014.05 1014.22 1014.41 1014.63 1014.86 1015.09 1015.32 1015.52 1015.71 1015.87 1016.02 1016.17 1016.31 1016.45 1016.59 1016.73 1016.85 1016.95 1017.02 1017.07 1017.10 1017.13 1017.16 1017.22 1017.31 1017.43 1017.57 1017.72 1017.86 1017.97 1018.04
1016.14 1016.07 1015.91 1015.71 1015.48 1015.23 1014.98 1014.73 1014.48 1014.24 1014.02 1013.84 1013.72 1013.65 1013.65 1013.71 1013.81 1013.96 1014.13 1014.31 1014.50 1014.68 1014.87 1015.05 1015.24 1015.44 1015.63 1015.83 1016.02 1016.21 1016.37 1016.51 1016.62 1016.70 1016.75 1016.77 1016.77 1016.77 1016.78 1016.80 1016.86 1016.95 1017.08 1017.24 1017.42 1017.59 1017.76 1017.88 1017.97
1016.46 1016.43 1016.36 1016.25 1016.10 1015.91 1015.65 1015.33 1014.96 1014.57 1014.20 1013.89 1013.66 1013.55 1013.54 1013.65 1013.83 1014.05 1014.27 1014.49 1014.67 1014.82 1014.95 1015.08 1015.22 1015.39 1015.59 1015.81 1016.03 1016.25 1016.44 1016.57 1016.66 1016.68 1016.67 1016.62 1016.56 1016.51 1016.49 1016.50 1016.57 1016.68 1016.82 1016.99 1017.17 1017.35 1017.51 1017.63 1017.72
1016.52 1016.59 1016.65 1016.69 1016.67 1016.56 1016.32 1015.95 1015.47 1014.94 1014.41 1013.95 1013.62 1013.45 1013.46 1013.61 1013.87 1014.17 1014.47 1014.72 1014.91 1015.03 1015.11 1015.18 1015.27 1015.40 1015.58 1015.81 1016.05 1016.30 1016.50 1016.64 1016.71 1016.70 1016.63 1016.53 1016.42 1016.33 1016.29 1016.29 1016.35 1016.45 1016.58 1016.73 1016.88 1017.02 1017.14 1017.24 1017.30
1016.42 1016.63 1016.88 1017.11 1017.27 1017.27 1017.07 1016.66 1016.09 1015.40 1014.70 1014.09 1013.65 1013.43 1013.43 1013.62 1013.95 1014.35 1014.72 1015.02 1015.21 1015.31 1015.35 1015.35 1015.38 1015.46 1015.62 1015.84 1016.10 1016.36 1016.58 1016.73 1016.79 1016.77 1016.68 1016.54 1016.41 1016.30 1016.23 1016.22 1016.25 1016.33 1016.42 1016.51 1016.60 1016.66 1016.71 1016.74 1016.76
1016.28 1016.68 1017.17 1017.63 1017.98 1018.12 1017.97 1017.54 1016.86 1016.02 1015.15 1014.38 1013.81 1013.51 1013.50 1013.72 1014.12 1014.58 1015.02 1015.37 1015.58 1015.67 1015.65 1015.60 1015.57 1015.60 1015.72 1015.92 1016.18 1016.46 1016.70 1016.87 1016.94 1016.92 1016.82 1016.68 1016.54 1016.41 1016.34 1016.31 1016.32 1016.35 1016.39 1016.40 1016.39 1016.34 1016.28 1016.22 1016.17
1016.24 1016.87 1017.60 1018.32 1018.87 1019.13 1019.04 1018.57 1017.79 1016.79 1015.76 1014.82 1014.12 1013.74 1013.69 1013.93 1014.37 1014.90 1015.40 1015.79 1016.02 1016.09 1016.04 1015.93 1015.84 1015.82 1015.90 1016.08 1016.34 1016.62 1016.88 1017.07 1017.16 1017.16 1017.08 1016.95 1016.81 1016.69 1016.61 1016.57 1016.55 1016.54 1016.50 1016.42 1016.30 1016.13 1015.94 1015.76 1015.60
1016.36 1017.22 1018.21 1019.15 1019.88 1020.26 1020.20 1019.69 1018.80 1017.66 1016.46 1015.38 1014.56 1014.09 1014.00 1014.24 1014.72 1015.29 1015.84 1016.27 1016.52 1016.58 1016.50 1016.35 1016.21 1016.14 1016.18 1016.34 1016.59 1016.87 1017.15 1017.36 1017.48 1017.50 1017.44 1017.32 1017.20 1017.09 1017.01 1016.95 1016.91 1016.86 1016.75 1016.59 1016.35 1016.06 1015.73 1015.42 1015.14
1016.63 1017.72 1018.92 1020.04 1020.90 1021.35 1021.30 1020.74 1019.76 1018.50 1017.17 1015.96 1015.04 1014.51 1014.39 1014.63 1015.13 1015.75 1016.34 1016.79 1017.06 1017.12 1017.03 1016.85 1016.67 1016.56 1016.58 1016.71 1016.95 1017.24 1017.52 1017.75 1017.89 1017.93 1017.88 1017.79 1017.67 1017.57 1017.49 1017.43 1017.37 1017.28 1017.12 1016.88 1016.55 1016.15 1015.70 1015.26 1014.86
1017.00 1018.26 1019.60 1020.84 1021.76 1022.24 1022.16 1021.55 1020.49 1019.15 1017.73 1016.46 1015.48 1014.92 1014.79 1015.05 1015.57 1016.22 1016.84 1017.33 1017.61 1017.69 1017.59 1017.41 1017.21 1017.09 1017.08 1017.21 1017.44 1017.72 1018.01 1018.25 1018.39 1018.44 1018.41 1018.31 1018.20 1018.10 1018.02 1017.95 1017.87 1017.76 1017.56 1017.28 1016.89 1016.40 1015.86 1015.31 1014.80
1017.36 1018.71 1020.12 1021.38 1022.30 1022.74 1022.62 1021.96 1020.85 1019.48 1018.04 1016.76 1015.79 1015.25 1015.15 1015.43 1015.99 1016.67 1017.32 1017.84 1018.15 1018.24 1018.17 1017.99 1017.81 1017.69 1017.68 1017.80 1018.03 1018.32 1018.60 1018.83 1018.98 1019.02 1018.98 1018.88 1018.76 1018.64 1018.55 1018.47 1018.38 1018.26 1018.06 1017.75 1017.33 1016.82 1016.22 1015.60 1015.01
1017.61 1018.98 1020.35 1021.54 1022.38 1022.74 1022.56 1021.86 1020.75 1019.40 1018.01 1016.80 1015.91 1015.44 1015.40 1015.73 1016.33 1017.04 1017.72 1018.27 1018.61 1018.74 1018.70 1018.57 1018.42 1018.33 1018.34 1018.48 1018.71 1018.99 1019.27 1019.50 1019.63 1019.65 1019.59 1019.47 1019.33 1019.19 1019.08 1018.98 1018.89 1018.77 1018.57 1018.28 1017.88 1017.37 1016.77 1016.13 1015.49
1017.69 1018.97 1020.22 1021.27 1021.96 1022.21 1021.95 1021.24 1020.17 1018.90 1017.64 1016.57 1015.81 1015.46 1015.51 1015.92 1016.56 1017.30 1018.01 1018.58 1018.96 1019.14 1019.16 1019.08 1018.99 1018.95 1019.01 1019.18 1019.43 1019.72 1019.99 1020.20 1020.31 1020.32 1020.24 1020.09 1019.92 1019.75 1019.61 1019.51 1019.41 1019.30 1019.13 1018.87 1018.51 1018.05 1017.49 1016.87 1016.24
1017.58 1018.71 1019.76 1020.61 1021.12 1021.23 1020.91 1020.20 1019.21 1018.09 1017.00 1016.11 1015.54 1015.33 1015.50 1015.97 1016.66 1017.42 1018.15 1018.75 1019.16 1019.40 1019.49 1019.49 1019.49 1019.52 1019.64 1019.85 1020.13 1020.43 1020.71 1020.91 1021.01 1021.00 1020.90 1020.73 1020.54 1020.35 1020.19 1020.07 1019.97 1019.87 1019.73 1019.52 1019.23 1018.83 1018.34 1017.79 1017.20
Thickness
5847 5845 5839 5825 5799 5770 5759 5769 5778 5776 5776 5784 5787 5780 5769 5761 5756 5750 5766 5774 5774 5772 5771 5769 5768 5767 5767 5766 5765 5765 5764 5764 5763 5762 5762 5761 5761 5760 5759 5758 5757 5756 5754 5753 5752 5751 5750 5748 5747
5850 5846 5834 5814 5779 5751 5756 5772 5775 5779 5785 5790 5787 5780 5770 5765 5768 5767 5769 5773 5774 5772 5770 5768 5767 5766 5765 5764 5763 5763 5762 5762 5761 5760 5760 5759 5759 5758 5757 5756 5755 5753 5752 5751 5750 5749 5748 5746 5745
5853 5848 5823 5798 5772 5758 5763 5777 5781 5788 5795 5792 5783 5780 5772 5766 5770 5771 5774 5775 5773 5771 5769 5768 5766 5765 5763 5762 5761 5761 5760 5759 5759 5758 5758 5757 5756 5756 5755 5754 5753 5752 5750 5750 5749 5747 5746 5744 5743
5851 5835 5817 5790 5774 5780 5782 5786 5790 5790 5792 5792 5783 5774 5776 5780 5778 5777 5777 5776 5772 5770 5768 5767 5765 5763 5762 5760 5760 5759 5758 5757 5756 5756 5755 5755 5754 5754 5753 5752 5751 5750 5749 5748 5747 5745 5744 5743 5741
5847 5823 5796 5777 5780 5790 5796 5797 5797 5790 5787 5787 5783 5770 5769 5779 5783 5780 5777 5775 5771 5769 5767 5765 5764 5762 5761 5759 5758 5757 5756 5755 5754 5754 5754 5753 5752 5752 5751 5750 5749 5748 5747 5746 5745 5744 5742 5741 5740
5829 5812 5780 5769 5782 5793 5798 5802 5796 5790 5788 5787 5782 5771 5768 5778 5780 5778 5777 5773 5771 5768 5766 5764 5762 5761 5759 5758 5756 5755 5754 5753 5753 5752 5752 5751 5750 5750 5749 5748 5747 5746 5745 5744 5743 5742 5741 5740 5739
5821 5801 5784 5782 5783 5789 5798 5805 5796 5790 5787 5788 5788 5771 5769 5775 5779 5778 5775 5772 5769 5766 5764 5762 5761 5760 5758 5757 5755 5754 5753 5752 5751 5750 5750 5749 5748 5748 5747 5746 5745 5744 5743 5743 5742 5741 5740 5739 5738
5831 5806 5789 5786 5786 5790 5805 5807 5804 5797 5792 5800 5794 5774 5769 5777 5780 5778 5773 5770 5767 5765 5763 5761 5760 5758 5757 5755 5754 5753 5752 5750 5749 5748 5748 5747 5747 5746 5745 5744 5744 5743 5742 5742 5741 5740 5739 5738 5737
5836 5799 5783 5791 5793 5798 5809 5804 5806 5810 5802 5801 5799 5791 5789 5786 5781 5775 5769 5766 5764 5763 5762 5761 5759 5757 5755 5754 5753 5752 5750 5749 5748 5747 5746 5746 5745 5744 5743 5743 5743 5742 5741 5740 5740 5739 5738 5737 5736
5823 5793 5800 5813 5814 5811 5812 5808 5806 5803 5795 5793 5792 5793 5792 5786 5780 5773 5768 5765 5763 5762 5761 5760 5758 5756 5755 5753 5752 5750 5749 5747 5746 5745 5745 5744 5743 5742 5742 5742 5741 5741 5740 5740 5739 5738 5737 5736 5736
5824 5810 5818 5823 5826 5822 5814 5811 5813 5800 5790 5794 5792 5791 5789 5785 5779 5774 5771 5768 5766 5764 5762 5760 5759 5756 5754 5753 5751 5749 5748 5746 5745 5744 5743 5742 5742 5741 5741 5740 5740 5740 5739 5739 5738 5737 5736 5736 5735
5823 5822 5827 5827 5830 5824 5817 5815 5810 5805 5806 5813 5807 5800 5792 5785 5781 5777 5773 5771 5768 5765 5763 5762 5759 5756 5754 5753 5751 5749 5747 5745 5744 5743 5742 5741 5741 5740 5739 5739 5739 5739 5738 5738 5737 5737 5736 5736 5735
5822 5822 5829 5831 5829 5826 5821 5815 5812 5810 5817 5816 5807 5799 5792 5787 5784 5781 5779 5774 5770 5767 5765 5762 5759 5757 5755 5752 5750 5748 5747 5745 5744 5743 5742 5741 5741 5740 5739 5739 5739 5738 5738 5737 5737 5736 5736 5736 5736
5822 5822 5824 5827 5826 5825 5816 5813 5811 5810 5816 5810 5803 5796 5793 5789 5786 5781 5778 5775 5772 5770 5767 5765 5762 5759 5756 5753 5751 5750 5747 5746 5744 5743 5742 5742 5741 5740 5739 5739 5738 5738 5738 5737 5737 5736 5736 5736 5736
5824 5815 5815 5819 5821 5820 5815 5802 5806 5814 5814 5806 5801 5797 5794 5792 5789 5786 5783 5780 5777 5774 5771 5768 5764 5761 5758 5755 5753 5751 5749 5747 5745 5743 5743 5742 5741 5740 5740 5739 5738 5738 5738 5737 5737 5736 5736 5736 5736
5813 5800 5791 5808 5816 5817 5807 5789 5808 5815 5811 5803 5801 5799 5795 5793 5793 5792 5789 5785 5782 5778 5774 5771 5768 5763 5760 5757 5755 5753 5750 5748 5746 5745 5744 5743 5742 5741 5740 5739 5739 5738 5738 5737 5737 5736 5736 5735 5735
5786 5779 5783 5797 5812 5813 5805 5795 5808 5814 5809 5802 5801 5800 5797 5795 5795 5795 5794 5790 5786 5782 5777 5773 5770 5766 5762 5759 5756 5754 5751 5749 5748 5747 5745 5745 5743 5742 5740 5740 5739 5738 5737 5737 5737 5736 5735 5735 5735
5774 5778 5782 5787 5805 5807 5800 5798 5806 5811 5809 5804 5802 5800 5799 5797 5799 5799 5797 5794 5790 5785 5781 5776 5772 5769 5764 5760 5757 5754 5752 5751 5749 5748 5747 5746 5745 5743 5741 5740 5739 5738 5737 5737 5736 5736 5735 5735 5735
5788 5783 5780 5790 5806 5802 5797 5796 5801 5807 5806 5803 5801 5801 5801 5802 5804 5802 5799 5796 5791 5786 5781 5778 5774 5770 5765 5760 5756 5753 5751 5751 5751 5750 5748 5747 5746 5744 5742 5741 5740 5739 5738 5738 5737 5735 5734 5733 5734
5787 5781 5781 5789 5802 5799 5792 5793 5800 5805 5806 5808 5806 5804 5804 5803 5802 5802 5800 5798 5793 5788 5784 5780 5776 5772 5769 5765 5761 5758 5755 5753 5752 5751 5750 5748 5746 5745 5743 5742 5741 5740 5739 5738 5737 5735 5733 5733 5733
5781 5779 5781 5783 5791 5792 5789 5782 5792 5801 5806 5809 5810 5810 5809 5807 5804 5803 5801 5799 5796 5791 5787 5784 5779 5775 5771 5768 5764 5760 5756 5754 5752 5750 5749 5749 5747 5745 5744 5742 5741 5740 5739 5738 5737 5736 5734 5731 5731
5772 5788 5788 5783 5772 5762 5775 5755 5780 5790 5796 5803 5808 5810 5811 5812 5810 5806 5804 5800 5798 5796 5792 5787 5782 5777 5774 5770 5766 5761 5756 5753 5753 5752 5750 5749 5748 5747 5745 5743 5742 5740 5739 5738 5738 5737 5735 5733 5729
5782 5791 5785 5779 5768 5757 5762 5754 5767 5785 5787 5799 5809 5814 5816 5816 5813 5811 5809 5806 5802 5798 5794 5789 5784 5779 5775 5771 5768 5764 5760 5757 5755 5753 5750 5749 5748 5747 5745 5743 5742 5740 5739 5738 5738 5737 5735 5733 5731
5788 5777 5766 5754 5748 5737 5754 5750 5756 5774 5790 5802 5813 5818 5820 5820 5818 5815 5813 5808 5803 5799 5795 5789 5784 5780 5777 5773 5770 5766 5762 5759 5755 5752 5750 5749 5748 5747 5746 5744 5742 5741 5739 5738 5737 5736 5735 5734 5732
5776 5752 5729 5727 5718 5726 5750 5750 5758 5792 5803 5810 5815 5819 5824 5823 5820 5816 5812 5807 5803 5798 5795 5791 5785 5781 5778 5774 5771 5769 5765 5761 5757 5754 5751 5749 5748 5747 5746 5745 5743 5741 5740 5738 5737 5736 5734 5733 5731
5765 5755 5727 5717 5714 5724 5743 5745 5771 5802 5810 5816 5819 5821 5823 5822 5821 5818 5815 5810 5806 5801 5796 5791 5786 5782 5779 5775 5772 5770 5767 5763 5760 5758 5755 5752 5750 5749 5748 5746 5744 5742 5740 5739 5737 5736 5734 5733 5731
5756 5749 5751 5728 5725 5723 5732 5751 5777 5801 5806 5811 5815 5818 5819 5821 5821 5819 5816 5811 5808 5803 5799 5794 5788 5783 5780 5777 5773 5769 5767 5764 5762 5759 5756 5753 5751 5749 5748 5746 5744 5742 5740 5739 5737 5735 5733 5732 5730
5766 5750 5732 5721 5709 5713 5732 5742 5755 5783 5793 5802 5808 5812 5815 5817 5817 5817 5815 5811 5808 5804 5799 5794 5789 5785 5781 5777 5773 5770 5767 5765 5763 5760 5756 5753 5751 5749 5747 5745 5743 5741 5740 5738 5736 5734 5732 5730 5728
5750 5743 5731 5718 5720 5709 5715 5736 5776 5784 5793 5797 5803 5809 5811 5813 5813 5813 5812 5810 5807 5803 5798 5793 5788 5783 5779 5776 5772 5769 5766 5764 5762 5759 5757 5754 5751 5748 5746 5744 5742 5739 5737 5736 5734 5732 5730 5728 5726
5761 5747 5736 5724 5715 5713 5716 5737 5786 5789 5794 5798 5801 5806 5809 5810 5811 5810 5808 5806 5802 5798 5795 5791 5788 5782 5779 5775 5771 5767 5764 5761 5759 5757 5755 5752 5749 5747 5745 5742 5739 5737 5735 5733 5731 5729 5728 5726 5723